Simultaneous Nadir Overpasses (SNOs) Predictions

Prediction of SNOs between GOES-16 and METOP-B Satellite Orbit:

Table of predicted SNOs for the next 14.0 days since TLE Epoch: 9/3/2022
Index Date Time (GOES-16) GOES-16 Lat,Lon METOP-B Lat,Lon Distance(km) Time Diff (sec)
1 09/04/2022 02:21:40 0.03, -75.20 0.59, -72.71 284.31 80
2 09/05/2022 14:37:50 -0.03, -75.22 0.45, -77.26 233.87 80
3 09/06/2022 14:19:51 -0.03, -75.22 -0.71, -72.28 335.91 80
4 09/08/2022 02:38:50 0.03, -75.22 -0.31, -76.87 187.58 80
5 09/09/2022 02:15:30 0.03, -75.23 0.78, -71.87 382.72 80
6 09/10/2022 14:34:20 -0.03, -75.25 0.25, -76.42 133.81 80
7 09/11/2022 14:16:21 -0.03, -75.27 -0.90, -71.44 437.11 80
8 09/13/2022 02:35:20 0.03, -75.28 -0.12, -76.03 84.62 80
9 09/14/2022 02:11:59 0.02, -75.30 0.98, -71.03 486.67 80
10 09/15/2022 14:30:50 -0.02, -75.34 0.04, -75.59 28.68 80
